Regional Weather Roundup
Issued by NWS Newport/Morehead, NC

Current Version | Previous Version | Text Only | Print | Product List | Glossary On
Versions: 1 2 3 4 5 6 7 8 9 10 11 12 13 14 15 16 17 18 19 20 21 22 23 24 25 26 27 28 29 30 31 32 33 34 35 36 37 38 39 40 41 42 43 44 45 46 47 48 49 50
000
ASUS42 KMHX 211814
RWRMHX
WEATHER ROUNDUP FOR EASTERN NORTH CAROLINA
NATIONAL WEATHER SERVICE NEWPORT/MOREHEAD CITY NC
200 PM EDT FRI JUL 21 2017

NOTE: "FAIR" INDICATES FEW OR NO CLOUDS BELOW 12,000 FEET
WITH NO SIGNIFICANT WEATHER AND/OR OBSTRUCTIONS TO VISIBILITY

NCZ015>017-031-032-045>047-102-103-211900-
NORTH COAST

CITY           SKY/WX    TMP DP  RH WIND       PRES   REMARKS
EDENTON        MOSUNNY   93  78  61 CALM      29.97F HX 108
ELIZABETH CITY MOSUNNY   92  79  65 S10       29.96F HX 108
KITTY HAWK     CLEAR     91  75  59 CALM      29.96F HX 101
MANTEO         SUNNY     88  80  75 S9        29.98F HX 104

$$

NCZ045>047-081-094-103-104-211900-
CENTRAL COAST

CITY           SKY/WX    TMP DP  RH WIND       PRES   REMARKS
FRISCO         SUNNY     86  77  74 SW12      30.00F

$$

NCZ095-097-098-100-101-211900-
SOUTHERN COAST

CITY           SKY/WX    TMP DP  RH WIND       PRES   REMARKS
BEAUFORT       SUNNY     86  79  79 SW16      30.01F
CEDAR ISLAND   NOT AVBL
JACKSONVILLE   MOSUNNY   93  74  53 SW7       29.99F HX 103
PINEY ISLAND   MOCLDY   N/A N/A N/A SW10      29.99F
WILMINGTON     MOSUNNY   92  72  51 SW6       30.01F


$$

NCZ011>013-027>030-043-044-078>080-089-090>093-098-211900-
COASTAL PLAIN

CITY           SKY/WX    TMP DP  RH WIND       PRES   REMARKS
AHOSKIE          N/A     89  79  72 CALM      29.96F HX 105
CLINTON        MOSUNNY   93  76  58 SW6       30.00F HX 105
ELIZABETHTOWN  NOT AVBL
GOLDSBORO      MOSUNNY   95  76  53 SW9       29.97F HX 107
GREENVILLE     SUNNY     95  73  49 SW8       29.99F HX 105
HAVELOCK       MOSUNNY   93  77  59 SW12      30.00F HX 107
KENANSVILLE    MOSUNNY   95  73  49 SW9       29.99F HX 105
KINSTON        PTSUNNY   95  72  46 S9        29.99F HX 103
NEW BERN       SUNNY     94  76  55 SW7       30.00F HX 106
RICHLANDS      SUNNY     94  76  55 SW7       30.00F HX 106
ROCKY MOUNT    SUNNY     93  76  57 VRB5      29.98F HX 105
WASHINGTON     MOSUNNY   93  74  54 SW7       29.98F HX 104
WHITEVILLE     SUNNY     92  73  53 S6        30.01F HX 100

$$

AMZ130-135-150-152-154-156-158-170-250-252-270-ANZ085-086-088-633-658-670-211900-
MARINE OBSERVATIONS

STATION/POSITION TIME  TEMP    WIND        PRES    WAVE   SWELL
                       AIR SEA DIR/SP/G            HT/PER HT/PER
                 (UTC) (F)     (DEG/KT/KT) (MB)    (FT/S) (FT/S)
CHESAPEAKE LIGHT NOT AVBL
64 E VA BEACH    1750   80 80  210/ 12/ 16 1015.2    2/11   2/11
DUCK             1748   86 58  160/  8/ 10 1014.4
2 E DUCK         1800      71                N/A     2/14   2/14
OREGON INLET     1736   83 84  190/ 15/ 16 1015.2
13E OREGON INLT  1748      81                N/A     2/11   2/11
HATTERAS CG      1748          210/  9/ 13   N/A
DIAMOND BUOY     1750   83 85  220/ 16/ 17 1016.1    3/ 8   2/ 8
CAPE LOOKOUT     1800   84     230/ 11/ 14 1016.2
BEAUFORT LAB     1748   84 81  200/ 13/ 17 1015.8
30 SE NEW RVR IN 1708   81 82  240/ 12/ 14 1017.5
30 SE NEW RVR IN 1743      82                N/A     3/11   2/11
27 SE WRIGHTSVLE 1708   82 81  220/ 10/ 16 1017.3
5 SE WRIGHTSVLE  1708   82 82  190/ 10/ 14 1017.0
225 S CAPE HAT   1750   82 84  240/ 10/ 12 1019.0    4/ 9   3/ 9
41 SE CHARLESTON 1750   83 84  210/  8/ 10 1017.4    3/ 7   2/ 7

$$



USA.gov is the U.S. government's official web portal to all federal, state and local government web resources and services.